Regional Weather Roundup
Issued by NWS

Home | Current Version | Previous Version | Graphics & Text | Print | Product List | Glossary On
Versions: 1 2 3 4 5 6 7 8 9 10 11 12 13 14 15 16 17 18 19 20 21 22 23 24 25 26 27 28 29 30 31 32 33 34 35 36 37 38 39 40 41 42 43 44 45 46 47 48 49 50
000
ASUS43 KIND 181059
RWRIN

WEATHER ROUNDUP FOR INDIANA
NATIONAL WEATHER SERVICE INDIANAPOLIS IN
600 AM EST SUN FEB 18 2018

NOTE: "FAIR" INDICATES FEW OR NO CLOUDS BELOW 12,000 FEET WITH NO
SIGNIFICANT WEATHER AND/OR OBSTRUCTIONS TO VISIBILITY.

* - STATION DOES NOT REPORT WEATHER SUCH AS PRECIPITATION OR FOG.

+ - STATION NOT QUALITY CONTROLLED BY THE NATIONAL WEATHER SERVICE.
    USE DATA WITH CAUTION...ESPECIALLY DEWPOINT AND RELATIVE
    HUMIDITY OBSERVATIONS.

INZ001>003-010>013-019-020-181200-
NORTHWEST INDIANA

CITY           SKY/WX    TMP DP  RH WIND       PRES   REMARKS
GARY /AIRPORT/ CLEAR     23  21  93 SE5       30.27S WCI  17
KNOX *+        CLOUDY    27  23  86 CALM      30.27F
MONTICELLO +   CLOUDY    26  24  90 N7        30.27F WCI  18
RENSSELAER +   FAIR      23  19  86 CALM      30.27F FOG

$$

LMZ046-743>745-181200-
SOUTHERN LAKE MICHIGAN

STATION/POSITION TIME  TEMP    WIND        PRES    WAVE
                       AIR SEA DIR/SP/G            HT
                 (UTC) (F)     (DEG/KT/KT) (MB)    (FT)
BURNS HARBOR     1040   24     180/  8/ 10 1025.4R
MICHIGAN CITY    1030   26     170/  7/  9   N/A

$$

INZ004-005-014>016-021>024-181200-
NORTH CENTRAL INDIANA

CITY           SKY/WX    TMP DP  RH WIND       PRES   REMARKS
GOSHEN         CLOUDY    29  23  78 SW5       30.28R WCI  24
PERU/GRISSOM   CLOUDY    28  28 100 N5        30.27S WCI  22
ROCHESTER +    CLOUDY    30  27  86 W3        30.29S
SOUTH BEND     CLOUDY    26  22  84 S5        30.27R WCI  20
WARSAW +       CLOUDY    28  25  86 W3        30.28R

$$

INZ006>009-017-018-025>027-181200-
NORTHEAST INDIANA

CITY           SKY/WX    TMP DP  RH WIND       PRES   REMARKS
AUBURN +       CLOUDY    28  27  93 W6        30.29R WCI  22
FORT WAYNE     CLOUDY    30  25  81 W8        30.30R WCI  22
KENDALLVILLE + CLOUDY    28  25  86 W9        30.27R WCI  20

$$

INZ028-029-035-036-043>045-051>053-181200-
WEST CENTRAL INDIANA

CITY           SKY/WX    TMP DP  RH WIND       PRES   REMARKS
GREENCASTLE +  FAIR      25  23  93 CALM      30.31R
LAFAYETTE      MOCLDY    23  23 100 NE3       30.30R
TERRE HAUTE    FAIR      24  23  96 S3        30.33R

$$

INZ030>032-037>040-046>048-054>057-064-065-181200-
CENTRAL INDIANA

CITY           SKY/WX    TMP DP  RH WIND       PRES   REMARKS
FRANKFORT +    CLOUDY    29  26  88 N3        30.31R
GREENWOOD *+   CLOUDY   N/A N/A N/A CALM      30.32R
INDIANAPOLIS   CLOUDY    29  26  89 N5        30.30R WCI  24
-EAGLE CREEK   CLOUDY    30  25  81 N3        30.29R
KOKOMO +       CLOUDY    28  25  88 NW5       30.29S WCI  23
MT COMFORT *+  CLOUDY    28  28 100 CALM      30.31R
SHELBYVILLE    CLOUDY    30  26  85 CALM      30.31R
ZIONSVILLE +   CLOUDY    27  25  93 N3        30.30R

$$

INZ033-034-041-042-049-050-058-059-181200-
EAST CENTRAL INDIANA

CITY           SKY/WX    TMP DP  RH WIND       PRES   REMARKS
MUNCIE         CLOUDY    30  24  78 NW6       30.30R WCI  24
RICHMOND +     CLOUDY    28  27  93 NW6       30.31R WCI  22

$$

INZ060-061-067>069-081>083-085>088-181200-
SOUTHWEST INDIANA

CITY           SKY/WX    TMP DP  RH WIND       PRES   REMARKS
EVANSVILLE     FOG       27  27 100 CALM      30.34S VSB 1/4
HUNTINGBURG +  FOG       28  27  96 CALM      30.34R VSB 1/4
WASHINGTON +   FAIR      30  28  94 CALM      30.33S FOG

$$

INZ062-063-066-070>080-084-089>092-181200-
SOUTH CENTRAL AND SOUTHEAST INDIANA

CITY           SKY/WX    TMP DP  RH WIND       PRES   REMARKS
BLOOMINGTON    FAIR      26  23  88 CALM      30.31R FOG
FRENCH LICK *+ FAIR      30 N/A N/A CALM      30.32R
MADISON *+     FAIR      30  30 100 CALM      30.35R
SEYMOUR +      FAIR      30  28  93 CALM      30.34R

$$




USA.gov is the U.S. government's official web portal to all federal, state and local government web resources and services.